Location: Unspecified
(0.0000°N, 0.0000°E)
Time: 10:46:33
(UTC+00:00)

DMSP 5D-3 F19 (USA 249) - Visible Passes

Search period start: 22 October 2019 00:00
Search period end: 01 November 2019 00:00
Orbit: 839 x 853 km, 98.8° (Epoch: 21 October)

Date Brightness Start Highest point End Pass type
(mag) Time Alt. Az. Time Alt. Az. Time Alt. Az.
22 Oct ? 19:01:58 10° SSW 19:06:29 27° WSW 19:11:03 10° NW visible
23 Oct ? 18:48:17 10° S 18:53:19 38° WSW 18:58:21 10° NW visible
24 Oct ? 18:34:49 10° S 18:40:08 55° WSW 18:45:28 10° NNW visible
25 Oct ? 18:21:29 10° S 18:26:57 79° WSW 18:32:25 10° NNW visible
26 Oct ? 18:08:20 10° SSE 18:13:46 74° ENE 18:19:13 10° N visible
27 Oct ? 05:13:48 10° ENE 05:17:02 16° ESE 05:20:15 10° SE visible
27 Oct ? 19:40:35 10° WSW 19:40:52 10° WSW 19:41:10 10° W visible
28 Oct ? 05:02:46 10° E 05:03:52 11° ESE 05:04:59 10° ESE visible
28 Oct ? 19:24:39 10° SW 19:27:43 15° WSW 19:30:47 10° WNW visible
29 Oct ? 19:10:26 10° SSW 19:14:33 22° WSW 19:18:40 10° NW visible
30 Oct ? 18:56:37 10° SSW 19:01:22 31° WSW 19:06:08 10° NW visible
31 Oct ? 18:43:00 10° S 18:48:12 44° WSW 18:53:23 10° NNW visible
